Weather History for Springfield, VT

Change the Weather History Date:

Monday, January 21, 2013

  Actual Average Record
Temperature  
Mean Temperature 17 °F 19 °F  
Max Temperature 24 °F 29 °F 55 °F (2006)
Min Temperature 9 °F 9 °F -7 °F (2003)
Degree Days  
Heating Degree Days 48 46  
Month to date heating degree days 831 955  
Since 1 July heating degree days 3237 3818  
Moisture  
Dew Point 7 °F    
Average Humidity 61    
Maximum Humidity 84    
Minimum Humidity 37    
Precipitation  
Precipitation 0.01 in 0.06 in 0.21 in (2011)
Month to date precipitation 0.36 2.13  
Year to date precipitation 0.36 2.13  
Sea Level Pressure  
Sea Level Pressure 29.93 in    
Wind  
Wind Speed 3 mph (WSW)    
Max Wind Speed 17 mph    
Max Gust Speed 31 mph    
Visibility 7 miles    
Events Snow    
T = Trace of Precipitation, MM = Missing Value Source: NWS Daily Summary

Daily Weather History Graph

Daily Weather History Graph

Search for Another Location

Airport:

Trip Planner

Search our weather history database for the weather conditions in past years. The results will help you decide how hot, cold, wet, or windy it might be!

Date:

Astronomy

Jan. 21, 2013 Rise Set
Actual Time 7:15 AM EST 4:47 PM EST
Civil Twilight 6:44 AM EST 5:18 PM EST
Nautical Twilight 6:09 AM EST 5:53 PM EST
Astronomical Twilight 5:35 AM EST 6:27 PM EST
Moon 12:25 PM EST (1/21) 2:41 AM EST (1/21)
Length of Visible Light 10h 34m
Length of Day
9h 31m
Waxing Gibbous, 75% of the Moon is Illuminated
Jan 21
Waxing Gibbous
Jan 26
Full
Feb 3
Last Quarter
Feb 10
New
Feb 17
First Quarter

Hourly Weather History & Observations

Time (EST) Temp. Windchill Dew Point Humidity Pressure Visibility Wind Dir Wind Speed Gust Speed Precip Events Conditions
12:54 AM 19.0 °F 6.8 °F -2.9 °F 38% 29.96 in 10.0 mi WNW 11.5 mph 20.7 mph N/A   Clear
1:54 AM 18.0 °F 5.4 °F -6.0 °F 35% 29.99 in 10.0 mi NW 11.5 mph 19.6 mph N/A   Clear
2:54 AM 16.0 °F - -5.1 °F 39% 30.01 in 10.0 mi Calm Calm - N/A   Clear
3:54 AM 15.1 °F 4.2 °F -4.0 °F 43% 30.01 in 10.0 mi West 8.1 mph - N/A   Clear
4:54 AM 12.0 °F 5.9 °F -2.0 °F 53% 30.02 in 10.0 mi Variable 3.5 mph - N/A   Clear
5:54 AM 10.9 °F - -2.0 °F 56% 30.03 in 10.0 mi Calm Calm - N/A   Partly Cloudy
6:54 AM 10.0 °F - -0.9 °F 61% 30.06 in 10.0 mi Calm Calm - N/A   Overcast
7:54 AM 12.0 °F - -0.0 °F 59% 30.05 in 10.0 mi Calm Calm - N/A   Overcast
8:54 AM 16.0 °F - 1.0 °F 52% 30.06 in 10.0 mi Calm Calm - N/A   Overcast
9:54 AM 19.0 °F - 1.0 °F 46% 30.06 in 10.0 mi Calm Calm - N/A   Mostly Cloudy
10:54 AM 21.0 °F 12.4 °F 1.9 °F 44% 30.03 in 10.0 mi Variable 6.9 mph - N/A   Clear
11:54 AM 21.9 °F 15.7 °F 1.0 °F 40% 29.99 in 10.0 mi SSW 4.6 mph - N/A   Scattered Clouds
12:54 PM 23.0 °F 17.0 °F 1.9 °F 40% 29.95 in 10.0 mi South 4.6 mph - N/A   Overcast
1:54 PM 23.0 °F 18.4 °F 1.9 °F 40% 29.94 in 10.0 mi SSW 3.5 mph - N/A   Overcast
2:54 PM 24.1 °F 15.2 °F 3.0 °F 40% 29.93 in 10.0 mi West 8.1 mph - N/A   Overcast
3:54 PM 23.0 °F 17.0 °F 5.0 °F 46% 29.92 in 10.0 mi SW 4.6 mph - N/A   Overcast
4:54 PM 21.9 °F 17.2 °F 6.1 °F 51% 29.92 in 10.0 mi WSW 3.5 mph - N/A   Overcast
5:54 PM 21.9 °F - 9.0 °F 58% 29.91 in 10.0 mi Calm Calm - N/A   Overcast
6:40 PM 19.4 °F - 12.2 °F 74% 29.88 in 3.0 mi Calm Calm - 0.00 in Snow Light Snow
6:54 PM 19.9 °F - 14.0 °F 78% 29.92 in 2.5 mi Calm Calm - 0.00 in Snow Light Snow
7:54 PM 19.9 °F - 15.1 °F 81% 29.91 in 1.8 mi Calm Calm - 0.00 in Snow Light Snow
8:13 PM 19.4 °F - 15.8 °F 86% 29.87 in 2.0 mi Calm Calm - 0.00 in Snow Light Snow
8:54 PM 19.9 °F - 15.1 °F 81% 29.89 in 3.0 mi Calm Calm - 0.01 in Snow Light Snow
9:06 PM 19.4 °F - 15.8 °F 86% 29.85 in 4.0 mi Calm Calm - 0.00 in Snow Light Snow
9:26 PM 19.4 °F - 15.8 °F 86% 29.84 in 3.0 mi Calm Calm - 0.00 in Snow Light Snow
9:54 PM 19.0 °F - 15.1 °F 85% 29.86 in 8.0 mi Calm Calm - 0.00 in   Overcast
10:37 PM 19.4 °F - 15.8 °F 86% 29.79 in 1.8 mi Calm Calm - 0.00 in Snow Light Snow
10:47 PM 19.4 °F - 15.8 °F 86% 29.79 in 2.0 mi Calm Calm - 0.00 in Snow Light Snow
10:54 PM 19.0 °F - 15.1 °F 85% 29.82 in 2.5 mi Calm Calm - 0.00 in Snow Light Snow
11:10 PM 19.4 °F - 15.8 °F 86% 29.77 in 4.0 mi Calm Calm - 0.00 in Snow Light Snow
11:54 PM 19.0 °F - 15.1 °F 85% 29.80 in 3.0 mi Calm Calm - 0.00 in Snow Light Snow